RWZ502 UMMS-UUBW

Flight info

Callsign RWZ502
Flight time 1h 8m
Altitude 33000
Route SORFO2F SORFO L979 PASUD T52 BILRU BILRU2W
Aircraft SU95/M-SDE3GILORVW/S

Departure

Time 2026-04-27 12:31
Airport Minsk National Airport (UMMS)

Arrival

Time 2026-04-27 13:39
Airport Zhukovsky International Airport (UUBW)
Time Latitude Longitude Altitude Speed Heading
2026-04-27 12:18 53.88859 28.03772 632 ft 0 kts 319°
2026-04-27 12:22 53.88861 28.03769 632 ft 2 kts 319°
2026-04-27 12:22 53.88875 28.03748 640 ft 3 kts 318°
2026-04-27 12:22 53.88894 28.03718 632 ft 4 kts 317°
2026-04-27 12:23 53.88921 28.03707 634 ft 4 kts 41°
2026-04-27 12:23 53.88926 28.03741 632 ft 4 kts 86°
2026-04-27 12:23 53.88919 28.03813 632 ft 9 kts 128°
2026-04-27 12:23 53.88876 28.03918 634 ft 12 kts 118°
2026-04-27 12:24 53.88892 28.04035 636 ft 11 kts 50°
2026-04-27 12:24 53.88944 28.04137 632 ft 12 kts 47°
2026-04-27 12:24 53.89002 28.04237 636 ft 12 kts 45°
2026-04-27 12:24 53.89056 28.04346 632 ft 12 kts 47°
2026-04-27 12:25 53.89117 28.04449 634 ft 13 kts 42°
2026-04-27 12:25 53.89190 28.04448 632 ft 11 kts 349°
2026-04-27 12:25 53.89250 28.04493 636 ft 10 kts 52°
2026-04-27 12:25 53.89295 28.04586 635 ft 11 kts 49°
2026-04-27 12:26 53.89356 28.04646 632 ft 10 kts
2026-04-27 12:26 53.89398 28.04587 635 ft 8 kts 325°
2026-04-27 12:26 53.89440 28.04527 632 ft 8 kts 317°
2026-04-27 12:26 53.89483 28.04461 632 ft 8 kts 317°
2026-04-27 12:27 53.89527 28.04393 632 ft 9 kts 317°
2026-04-27 12:27 53.89578 28.04317 632 ft 11 kts 320°
2026-04-27 12:27 53.89656 28.04205 632 ft 18 kts 319°
2026-04-27 12:27 53.89761 28.04167 632 ft 17 kts 54°
2026-04-27 12:28 53.89742 28.04343 636 ft 16 kts 108°
2026-04-27 12:28 53.89707 28.04522 632 ft 17 kts 117°
2026-04-27 12:28 53.89620 28.04666 631 ft 19 kts 138°
2026-04-27 12:28 53.89512 28.04832 632 ft 25 kts 138°
2026-04-27 12:29 53.89382 28.05031 632 ft 26 kts 140°
2026-04-27 12:29 53.89241 28.05226 632 ft 27 kts 140°
2026-04-27 12:29 53.89098 28.05434 636 ft 28 kts 139°
2026-04-27 12:29 53.88953 28.05652 635 ft 28 kts 143°
2026-04-27 12:30 53.88807 28.05786 632 ft 16 kts 138°
2026-04-27 12:30 53.88831 28.05843 631 ft 7 kts 316°
2026-04-27 12:30 53.89027 28.05534 636 ft 80 kts 319°
2026-04-27 12:30 53.89642 28.04634 634 ft 150 kts 318°
2026-04-27 12:31 53.90438 28.03462 1342 ft 157 kts 318°
2026-04-27 12:31 53.91306 28.02235 2142 ft 164 kts 320°
2026-04-27 12:31 53.92163 28.00962 3052 ft 170 kts 317°
2026-04-27 12:31 53.93094 27.99548 3764 ft 186 kts 318°
2026-04-27 12:32 53.94066 27.98079 4807 ft 187 kts 319°
2026-04-27 12:32 53.95059 27.96621 5782 ft 191 kts 323°
2026-04-27 12:32 53.96257 27.95603 6661 ft 197 kts 340°
2026-04-27 12:32 53.97635 27.95294 7529 ft 205 kts 359°
2026-04-27 12:33 53.99063 27.95882 7948 ft 220 kts 14°
2026-04-27 12:33 54.00568 27.96865 7998 ft 238 kts 15°
2026-04-27 12:33 54.02090 27.97978 8073 ft 250 kts 26°
2026-04-27 12:33 54.03374 28.00201 8424 ft 280 kts 53°
2026-04-27 12:34 54.04254 28.03183 9505 ft 284 kts 60°
2026-04-27 12:34 54.05026 28.06313 10379 ft 293 kts 62°
2026-04-27 12:34 54.05840 28.09632 10799 ft 315 kts 62°
2026-04-27 12:34 54.06722 28.13129 11467 ft 325 kts 61°
2026-04-27 12:35 54.07634 28.16667 12407 ft 328 kts 61°
2026-04-27 12:35 54.08248 28.19021 13010 ft 330 kts 61°
2026-04-27 12:35 54.08708 28.20774 13472 ft 332 kts 61°
2026-04-27 12:35 54.09399 28.23398 14103 ft 335 kts 61°
2026-04-27 12:36 54.10399 28.27185 14903 ft 340 kts 60°
2026-04-27 12:36 54.11376 28.30888 15679 ft 345 kts 60°
2026-04-27 12:36 54.12365 28.34638 16460 ft 349 kts 60°
2026-04-27 12:36 54.13352 28.38395 17217 ft 354 kts 60°
2026-04-27 12:37 54.14367 28.42261 17959 ft 359 kts 59°
2026-04-27 12:37 54.15395 28.46185 18631 ft 364 kts 59°
2026-04-27 12:37 54.16434 28.50161 19278 ft 369 kts 59°
2026-04-27 12:37 54.17485 28.54193 19897 ft 374 kts 58°
2026-04-27 12:38 54.18545 28.58269 20538 ft 378 kts 58°
2026-04-27 12:38 54.19620 28.62407 21168 ft 383 kts 57°
2026-04-27 12:38 54.20338 28.65173 21584 ft 386 kts 57°
2026-04-27 12:38 54.21807 28.70843 22423 ft 392 kts 57°
2026-04-27 12:39 54.22914 28.75125 23062 ft 396 kts 57°
2026-04-27 12:39 54.24035 28.79472 23628 ft 401 kts 56°
2026-04-27 12:39 54.25162 28.83850 24157 ft 404 kts 57°
2026-04-27 12:39 54.26299 28.88274 24689 ft 408 kts 57°
2026-04-27 12:40 54.27430 28.92684 25179 ft 411 kts 57°
2026-04-27 12:40 54.28584 28.97191 25669 ft 415 kts 57°
2026-04-27 12:40 54.29615 29.01855 26157 ft 426 kts 65°
2026-04-27 12:40 54.30283 29.06873 26634 ft 437 kts 72°
2026-04-27 12:41 54.30828 29.12011 27118 ft 440 kts 72°
2026-04-27 12:41 54.31386 29.17188 27586 ft 444 kts 72°
2026-04-27 12:41 54.31949 29.22408 28044 ft 448 kts 72°
2026-04-27 12:41 54.32516 29.27673 28493 ft 451 kts 72°
2026-04-27 12:42 54.33083 29.32979 28920 ft 455 kts 72°
2026-04-27 12:42 54.33469 29.36593 29181 ft 457 kts 72°
2026-04-27 12:42 54.34222 29.43728 29733 ft 462 kts 72°
2026-04-27 12:42 54.34790 29.49159 30092 ft 465 kts 73°
2026-04-27 12:43 54.35359 29.54626 30449 ft 467 kts 73°
2026-04-27 12:43 54.35929 29.60131 30802 ft 470 kts 73°
2026-04-27 12:43 54.36503 29.65677 31142 ft 472 kts 73°
2026-04-27 12:43 54.37081 29.71236 31481 ft 475 kts 74°
2026-04-27 12:44 54.37663 29.76843 31804 ft 478 kts 74°
2026-04-27 12:44 54.38245 29.82481 32116 ft 480 kts 74°
2026-04-27 12:44 54.38629 29.86225 32325 ft 482 kts 75°
2026-04-27 12:44 54.39320 29.91859 32648 ft 480 kts 69°
2026-04-27 12:45 54.40793 29.98958 32850 ft 472 kts 60°
2026-04-27 12:45 54.43413 30.09252 32841 ft 470 kts 61°
2026-04-27 12:46 54.45577 30.17833 32836 ft 471 kts 61°
2026-04-27 12:46 54.48605 30.29920 32828 ft 470 kts 61°
2026-04-27 12:47 54.51186 30.40272 32823 ft 470 kts 62°
2026-04-27 12:47 54.53321 30.48874 32819 ft 470 kts 62°
2026-04-27 12:48 54.55882 30.59238 32821 ft 470 kts 62°
2026-04-27 12:48 54.58436 30.69609 32815 ft 470 kts 62°
2026-04-27 12:49 54.60984 30.80013 32815 ft 470 kts 62°
2026-04-27 12:49 54.63516 30.90414 32811 ft 470 kts 63°
2026-04-27 12:50 54.66039 31.00820 32808 ft 470 kts 63°
2026-04-27 12:50 54.68147 31.11475 32811 ft 473 kts 68°
2026-04-27 12:51 54.70104 31.22337 32797 ft 472 kts 68°
2026-04-27 12:51 54.72054 31.33208 32788 ft 472 kts 69°
2026-04-27 12:52 54.73972 31.44002 32786 ft 471 kts 69°
2026-04-27 12:52 54.75889 31.54864 32789 ft 471 kts 69°
2026-04-27 12:53 54.78743 31.71167 32784 ft 471 kts 69°
2026-04-27 12:53 54.80633 31.82041 32778 ft 471 kts 69°
2026-04-27 12:54 54.82512 31.92922 32774 ft 470 kts 70°
2026-04-27 12:54 54.84382 32.03811 32772 ft 470 kts 70°
2026-04-27 12:55 54.86238 32.14692 32764 ft 470 kts 70°
2026-04-27 12:55 54.88074 32.25521 32765 ft 470 kts 70°
2026-04-27 12:56 54.89911 32.36420 32758 ft 470 kts 70°
2026-04-27 12:56 54.91737 32.47326 32751 ft 470 kts 70°
2026-04-27 12:57 54.93557 32.58260 32744 ft 470 kts 70°
2026-04-27 12:57 54.95363 32.69178 32738 ft 470 kts 71°
2026-04-27 12:58 54.97161 32.80115 32735 ft 470 kts 71°
2026-04-27 12:58 54.98946 32.91063 32727 ft 470 kts 71°
2026-04-27 12:59 55.00725 33.02034 32721 ft 470 kts 71°
2026-04-27 12:59 55.02484 33.12952 32717 ft 471 kts 71°
2026-04-27 13:00 55.04249 33.23974 32713 ft 471 kts 71°
2026-04-27 13:00 55.06003 33.34999 32707 ft 471 kts 71°
2026-04-27 13:01 55.07749 33.46034 32698 ft 472 kts 72°
2026-04-27 13:01 55.09481 33.57087 32695 ft 472 kts 72°
2026-04-27 13:02 55.11198 33.68091 32684 ft 472 kts 72°
2026-04-27 13:02 55.12915 33.79164 32679 ft 472 kts 72°
2026-04-27 13:03 55.14621 33.90256 32691 ft 472 kts 72°
2026-04-27 13:03 55.16314 34.01350 32669 ft 472 kts 72°
2026-04-27 13:04 55.18000 34.12445 32656 ft 471 kts 72°
2026-04-27 13:04 55.19584 34.23095 32637 ft 472 kts 76°
2026-04-27 13:05 55.20099 34.34409 32634 ft 475 kts 85°
2026-04-27 13:05 55.20367 34.45976 32623 ft 475 kts 85°
2026-04-27 13:06 55.20631 34.57535 32620 ft 475 kts 85°
2026-04-27 13:06 55.20890 34.69082 32614 ft 475 kts 86°
2026-04-27 13:07 55.21138 34.80589 32596 ft 475 kts 86°
2026-04-27 13:07 55.21375 34.92133 32589 ft 474 kts 86°
2026-04-27 13:08 55.21601 35.03687 32573 ft 474 kts 86°
2026-04-27 13:08 55.21801 35.14411 32565 ft 474 kts 86°
2026-04-27 13:09 55.22005 35.25968 32558 ft 474 kts 86°
2026-04-27 13:09 55.22198 35.37465 32552 ft 474 kts 87°
2026-04-27 13:10 55.22383 35.49041 32394 ft 478 kts 86°
2026-04-27 13:10 55.22461 35.54215 32165 ft 477 kts 87°
2026-04-27 13:10 55.22518 35.58102 31992 ft 474 kts 87°
2026-04-27 13:11 55.22668 35.68824 31379 ft 466 kts 87°
2026-04-27 13:11 55.22745 35.74478 30834 ft 462 kts 87°
2026-04-27 13:11 55.22819 35.80081 30306 ft 459 kts 87°
2026-04-27 13:12 55.22871 35.84269 29915 ft 457 kts 88°
2026-04-27 13:12 55.22940 35.89838 29334 ft 454 kts 88°
2026-04-27 13:12 55.23005 35.95351 28797 ft 449 kts 87°
2026-04-27 13:12 55.23066 36.00800 28277 ft 443 kts 87°
2026-04-27 13:13 55.23124 36.06171 27760 ft 438 kts 87°
2026-04-27 13:13 55.23179 36.11404 27262 ft 432 kts 87°
2026-04-27 13:13 55.23231 36.16647 26755 ft 427 kts 87°
2026-04-27 13:13 55.23280 36.21843 26245 ft 422 kts 87°
2026-04-27 13:14 55.23327 36.26975 25755 ft 417 kts 86°
2026-04-27 13:14 55.23372 36.31972 25263 ft 413 kts 86°
2026-04-27 13:14 55.23413 36.36977 24775 ft 408 kts 86°
2026-04-27 13:14 55.23452 36.41940 24271 ft 404 kts 86°
2026-04-27 13:15 55.23488 36.46839 23759 ft 401 kts 85°
2026-04-27 13:15 55.23522 36.51713 23257 ft 397 kts 86°
2026-04-27 13:15 55.23553 36.56549 22702 ft 394 kts 86°
2026-04-27 13:15 55.23583 36.61338 22199 ft 389 kts 85°
2026-04-27 13:16 55.23591 36.62671 22056 ft 387 kts 86°
2026-04-27 13:16 55.23615 36.66472 21662 ft 383 kts 85°
2026-04-27 13:16 55.23641 36.71111 21169 ft 378 kts 86°
2026-04-27 13:16 55.23666 36.75707 20677 ft 374 kts 86°
2026-04-27 13:17 55.23690 36.80244 20197 ft 371 kts 86°
2026-04-27 13:17 55.23557 36.84632 19745 ft 370 kts 94°
2026-04-27 13:17 55.23103 36.89077 19255 ft 369 kts 102°
2026-04-27 13:17 55.22504 36.93432 18780 ft 366 kts 101°
2026-04-27 13:18 55.21925 36.97779 18477 ft 368 kts 101°
2026-04-27 13:18 55.21336 37.02270 18405 ft 389 kts 101°
2026-04-27 13:18 55.20729 37.07019 18396 ft 394 kts 101°
2026-04-27 13:18 55.20223 37.11727 18318 ft 391 kts 95°
2026-04-27 13:19 55.19906 37.16451 18067 ft 390 kts 95°
2026-04-27 13:19 55.19600 37.21155 17824 ft 388 kts 95°
2026-04-27 13:19 55.19298 37.25792 17570 ft 387 kts 95°
2026-04-27 13:19 55.18986 37.30532 17284 ft 386 kts 95°
2026-04-27 13:20 55.18674 37.35215 17000 ft 386 kts 95°
2026-04-27 13:20 55.18360 37.39875 16705 ft 384 kts 95°
2026-04-27 13:20 55.18046 37.44506 16453 ft 382 kts 95°
2026-04-27 13:20 55.17731 37.49127 16174 ft 381 kts 95°
2026-04-27 13:21 55.17416 37.53722 15898 ft 380 kts 95°
2026-04-27 13:21 55.17099 37.58316 15632 ft 380 kts 95°
2026-04-27 13:21 55.16781 37.62903 15362 ft 379 kts 95°
2026-04-27 13:21 55.16461 37.67482 15099 ft 379 kts 95°
2026-04-27 13:22 55.16142 37.72045 14839 ft 378 kts 95°
2026-04-27 13:22 55.15929 37.75064 14666 ft 377 kts 95°
2026-04-27 13:22 55.15502 37.81098 14328 ft 376 kts 95°
2026-04-27 13:22 55.15178 37.85642 14071 ft 376 kts 95°
2026-04-27 13:23 55.14853 37.90174 13825 ft 375 kts 95°
2026-04-27 13:23 55.14636 37.93184 13659 ft 375 kts 96°
2026-04-27 13:23 55.14309 37.97716 13414 ft 375 kts 95°
2026-04-27 13:23 55.13981 38.02230 13181 ft 374 kts 96°
2026-04-27 13:24 55.13650 38.06753 12902 ft 374 kts 96°
2026-04-27 13:24 55.13320 38.11255 12620 ft 373 kts 96°
2026-04-27 13:24 55.12988 38.15753 12337 ft 371 kts 96°
2026-04-27 13:24 55.12656 38.20223 11910 ft 370 kts 96°
2026-04-27 13:25 55.12325 38.24668 11445 ft 367 kts 96°
2026-04-27 13:25 55.11994 38.29078 11007 ft 363 kts 96°
2026-04-27 13:25 55.11665 38.33434 10569 ft 360 kts 96°
2026-04-27 13:25 55.11337 38.37764 10131 ft 357 kts 96°
2026-04-27 13:26 55.11015 38.42000 9696 ft 355 kts 96°
2026-04-27 13:26 55.10688 38.46268 9521 ft 344 kts 96°
2026-04-27 13:26 55.10379 38.50285 9387 ft 332 kts 96°
2026-04-27 13:26 55.10074 38.54245 9208 ft 325 kts 95°
2026-04-27 13:27 55.10192 38.58158 9069 ft 322 kts 69°
2026-04-27 13:27 55.11153 38.61578 8905 ft 309 kts 44°
2026-04-27 13:27 55.12660 38.64145 8582 ft 297 kts 30°
2026-04-27 13:27 55.14293 38.66305 8307 ft 289 kts 27°
2026-04-27 13:28 55.15869 38.68394 8194 ft 280 kts 28°
2026-04-27 13:28 55.17341 38.70468 8052 ft 271 kts 30°
2026-04-27 13:28 55.18788 38.72609 7925 ft 275 kts 31°
2026-04-27 13:28 55.20242 38.74820 7654 ft 277 kts 30°
2026-04-27 13:29 55.21842 38.76422 7320 ft 252 kts
2026-04-27 13:29 55.23471 38.76473 7044 ft 221 kts 333°
2026-04-27 13:29 55.24725 38.75255 6804 ft 198 kts 309°
2026-04-27 13:29 55.25611 38.73490 6579 ft 190 kts 304°
2026-04-27 13:30 55.26477 38.71732 6345 ft 192 kts 305°
2026-04-27 13:30 55.27362 38.70000 6119 ft 189 kts 306°
2026-04-27 13:30 55.28247 38.68298 5892 ft 189 kts 306°
2026-04-27 13:30 55.29122 38.66594 5651 ft 187 kts 305°
2026-04-27 13:31 55.29988 38.64898 5430 ft 187 kts 305°
2026-04-27 13:31 55.30845 38.63215 5205 ft 186 kts 305°
2026-04-27 13:31 55.31706 38.61528 4984 ft 185 kts 305°
2026-04-27 13:31 55.32565 38.59838 4735 ft 185 kts 305°
2026-04-27 13:32 55.33415 38.58171 4472 ft 182 kts 305°
2026-04-27 13:32 55.34263 38.56503 4216 ft 182 kts 304°
2026-04-27 13:32 55.35105 38.54848 3950 ft 180 kts 304°
2026-04-27 13:32 55.35949 38.53187 3690 ft 184 kts 304°
2026-04-27 13:33 55.36789 38.51535 3445 ft 183 kts 304°
2026-04-27 13:33 55.37639 38.49863 3194 ft 183 kts 303°
2026-04-27 13:33 55.38490 38.48187 2944 ft 184 kts 303°
2026-04-27 13:33 55.39346 38.46499 2684 ft 186 kts 303°
2026-04-27 13:34 55.40219 38.44777 2422 ft 189 kts 303°
2026-04-27 13:34 55.41102 38.43034 2164 ft 192 kts 303°
2026-04-27 13:34 55.42007 38.41245 2009 ft 201 kts 303°
2026-04-27 13:34 55.42924 38.39448 1994 ft 192 kts 303°
2026-04-27 13:35 55.43794 38.37732 1992 ft 183 kts 303°
2026-04-27 13:35 55.44594 38.36164 1999 ft 162 kts 302°
2026-04-27 13:35 55.45299 38.34778 1989 ft 140 kts 301°
2026-04-27 13:35 55.45904 38.33582 1990 ft 123 kts 300°
2026-04-27 13:36 55.46473 38.32433 1995 ft 125 kts 300°
2026-04-27 13:36 55.47045 38.31302 1984 ft 121 kts 300°
2026-04-27 13:36 55.47606 38.30187 1989 ft 123 kts 300°
2026-04-27 13:36 55.48178 38.29057 1994 ft 124 kts 300°
2026-04-27 13:37 55.48758 38.27907 1857 ft 125 kts 300°
2026-04-27 13:37 55.49342 38.26749 1686 ft 128 kts 301°
2026-04-27 13:37 55.49929 38.25592 1503 ft 126 kts 301°
2026-04-27 13:37 55.50518 38.24422 1329 ft 130 kts 302°
2026-04-27 13:38 55.51133 38.23195 1149 ft 137 kts 302°
2026-04-27 13:38 55.51774 38.21939 971 ft 138 kts 302°
2026-04-27 13:38 55.52429 38.20650 787 ft 144 kts 307°
2026-04-27 13:38 55.53109 38.19309 603 ft 147 kts 307°
2026-04-27 13:39 55.53784 38.17972 423 ft 144 kts 301°
2026-04-27 13:39 55.54414 38.16766 398 ft 124 kts 303°
2026-04-27 13:39 55.54843 38.15844 396 ft 68 kts 310°
2026-04-27 13:39 55.55078 38.15375 392 ft 35 kts 311°
2026-04-27 13:40 55.55215 38.15088 395 ft 20 kts 336°
2026-04-27 13:40 55.55314 38.14927 395 ft 19 kts 307°
2026-04-27 13:40 55.55394 38.14746 396 ft 19 kts 311°
2026-04-27 13:40 55.55484 38.14580 396 ft 19 kts 311°
2026-04-27 13:41 55.55563 38.14384 395 ft 20 kts 300°
2026-04-27 13:41 55.55557 38.14252 393 ft 10 kts 230°
2026-04-27 13:41 55.55513 38.14184 393 ft 0 kts 218°
2026-04-27 13:42 55.55496 38.14160 396 ft 6 kts 220°
2026-04-27 13:42 55.55476 38.14054 396 ft 13 kts 282°
2026-04-27 13:42 55.55529 38.13928 392 ft 13 kts 311°
2026-04-27 13:43 55.55590 38.13800 395 ft 14 kts 314°
2026-04-27 13:43 55.55657 38.13676 396 ft 14 kts 311°
2026-04-27 13:43 55.55720 38.13543 396 ft 14 kts 310°
2026-04-27 13:43 55.55788 38.13405 395 ft 15 kts 313°
2026-04-27 13:44 55.55862 38.13268 394 ft 16 kts 311°
2026-04-27 13:44 55.55936 38.13121 396 ft 16 kts 311°
2026-04-27 13:44 55.56009 38.12964 395 ft 17 kts 319°
2026-04-27 13:44 55.56084 38.12809 394 ft 17 kts 295°
2026-04-27 13:45 55.56146 38.12650 393 ft 16 kts 310°
2026-04-27 13:45 55.56216 38.12497 396 ft 16 kts 314°
2026-04-27 13:45 55.56289 38.12344 395 ft 16 kts 312°
2026-04-27 13:45 55.56368 38.12197 396 ft 17 kts 313°
2026-04-27 13:46 55.56404 38.12047 396 ft 11 kts 271°
2026-04-27 13:46 55.56401 38.11944 396 ft 3 kts 265°
2026-04-27 13:46 55.56401 38.11928 396 ft 0 kts 266°
2026-04-27 13:47 55.56347 38.12048 396 ft 0 kts 221°